Miscellaneous Local Product
Issued by NWS Hastings, NE

Home | Current Version | Previous Version | Text Only | Print | Product List | Glossary On
Versions: 1 2 3 4 5 6 7 8 9 10 11 12 13 14 15 16 17 18 19 20 21 22 23 24 25 26 27 28 29 30 31 32 33 34 35 36 37 38 39 40 41 42 43 44 45 46 47 48 49 50
000
AXUS43 KGID 252102
MISGRI

GID CWA HOURLY WEATHER ROUNDUP
NATIONAL WEATHER SERVICE HASTINGS NE
400 PM CDT WED APR 25 2018

NOTE: "FAIR" INDICATES FEW OR NO CLOUDS BELOW 12,000 FEET WITH NO
SIGNIFICANT WEATHER AND/OR OBSTRUCTIONS TO VISIBILITY.

...SOUTH CENTRAL NEBRASKA...

CITY           SKY/WX    TMP DP  RH WIND       PRES   REMARKS
GRAND ISLAND   SUNNY     57  33  40 W5        30.14F
KEARNEY        SUNNY     57  32  38 N9        30.15F
HASTINGS       SUNNY     55  33  43 VRB7      30.15F
ORD            SUNNY     56  26  31 SW5       30.12F
YORK             N/A     55  36  47 E3        30.14F
AURORA         SUNNY     55  33  44 CALM      30.15F
LEXINGTON      SUNNY     58  32  37 N6        30.14F
HOLDREGE       SUNNY     56  36  47 N6        30.15F
HEBRON         CLOUDY    52  38  59 N6        30.15F

...NEBRASKA PANHANDLE...

CITY           SKY/WX    TMP DP  RH WIND       PRES   REMARKS
CHADRON        MOSUNNY   68  20  16 SW13G21   30.02F
ALLIANCE       SUNNY     63  22  20 SW13G18   30.09F
SCOTTSBLUFF    SUNNY     67  26  21 S12G17    30.07F
SIDNEY         SUNNY     63  27  25 W6        30.13F

...WESTERN AND NORTH CENTRAL NEBRASKA...

CITY           SKY/WX    TMP DP  RH WIND       PRES   REMARKS
VALENTINE      SUNNY     64  21  19 S10G21    30.08F
AINSWORTH      SUNNY     60  27  28 W10G16    30.11F
ONEILL         SUNNY     60  28  29 S3        30.13F
BROKEN BOW     SUNNY     58  33  39 VRB5      30.13F
IMPERIAL       SUNNY     59  29  31 SW5       30.15F
NORTH PLATTE   SUNNY     61  29  29 VRB7      30.14F
MCCOOK         SUNNY     60  31  33 VRB5      30.14F

...EASTERN NEBRASKA...

CITY           SKY/WX    TMP DP  RH WIND       PRES   REMARKS
NORFOLK        SUNNY     59  30  33 N9        30.10F
SO SIOUX CITY  SUNNY     60  32  34 CALM      30.11F
TEKAMAH        SUNNY     61  31  32 N7        30.11F
COLUMBUS       SUNNY     58  34  40 NW6       30.13F
ALBION         SUNNY     58  30  35 CALM      30.13F
OMAHA EPPLEY   MOSUNNY   61  36  39 CALM      30.10F
MILLARD        CLOUDY    59  36  42 CALM      30.12F
LINCOLN        MOSUNNY   56  34  43 VRB6      30.15F
NEBRASKA CITY  CLOUDY    51  42  71 NW6       30.14F
BEATRICE       CLOUDY    52  40  63 NE7       30.15F
FALLS CITY     CLOUDY    54  41  61 N10       30.12F

...NORTHERN KANSAS...

CITY           SKY/WX    TMP DP  RH WIND       PRES   REMARKS
GOODLAND       SUNNY     58  32  37 N9        30.17F
HILL CITY      MOSUNNY   59  37  44 N13G23    30.17F
NORTON         CLEAR     59  34  38 N12       30.15F
PHILLIPSBURG   SUNNY     57  34  41 N12       30.16F
SMITH CENTER   MOSUNNY   54  36  50 NE12G17   30.17F
BELOIT         CLOUDY    48  39  71 N13       30.16F
HAYS           PTSUNNY   58  35  42 N14       30.16F
RUSSELL        CLOUDY    53  39  59 N15       30.15F
CONCORDIA      CLOUDY    49  41  74 N13       30.15F
SALINA         CLOUDY    49  45  86 N13       30.16F
TOPEKA         LGT RAIN  50  49  96 N12       30.10F



USA.gov is the U.S. government's official web portal to all federal, state and local government web resources and services.